Hourly Weather Al Khiyam

Today, 28 February, Sunday

Time Temperature Precipitation Wind Pressure Humidity
00:00 +10°C° 0 mm 2 mps 710 mmHg 62%
01:00 +10°C° 0 mm 2 mps 710 mmHg 63%
02:00 +9°C° 0 mm 2 mps 710 mmHg 66%
03:00 +9°C° 0 mm 2 mps 710 mmHg 66%
04:00 +9°C° 0 mm 2 mps 710 mmHg 67%
05:00 +9°C° 0 mm 1 mps 709 mmHg 68%
06:00 +11°C° 0 mm 1 mps 710 mmHg 64%
07:00 +13°C° 0 mm 1 mps 711 mmHg 61%
08:00 +14°C° 0 mm 1 mps 711 mmHg 58%
09:00 +15°C° 0 mm 1 mps 711 mmHg 58%
10:00 +16°C° 0 mm 2 mps 712 mmHg 58%
11:00 +17°C° 0 mm 2 mps 712 mmHg 58%
12:00 +16°C° 0 mm 3 mps 711 mmHg 60%
13:00 +16°C° 0 mm 3 mps 711 mmHg 63%
14:00 +15°C° 0 mm 4 mps 711 mmHg 66%
15:00 +14°C° 0 mm 3 mps 711 mmHg 69%
16:00 +13°C° 0 mm 3 mps 711 mmHg 72%
17:00 +12°C° 0 mm 3 mps 711 mmHg 75%
18:00 +12°C° 0 mm 2 mps 711 mmHg 79%
19:00 +10°C° 0 mm 2 mps 711 mmHg 83%
20:00 +9°C° 0 mm 1 mps 711 mmHg 86%
21:00 +9°C° 0 mm 1 mps 711 mmHg 87%
22:00 +9°C° 0 mm 1 mps 712 mmHg 87%
23:00 +9°C° 0 mm 1 mps 712 mmHg 87%

Tomorrow, 1 March, Monday

Time Temperature Precipitation Wind Pressure Humidity
00:00 +9°C° 0 mm 1 mps 712 mmHg 88%
01:00 +8°C° 0 mm 2 mps 711 mmHg 89%
02:00 +8°C° 0 mm 2 mps 711 mmHg 89%
03:00 +8°C° 0 mm 2 mps 711 mmHg 89%
04:00 +8°C° 0 mm 2 mps 711 mmHg 89%
05:00 +8°C° 0 mm 2 mps 711 mmHg 89%
06:00 +9°C° 0 mm 2 mps 712 mmHg 86%
07:00 +10°C° 0 mm 3 mps 712 mmHg 83%
08:00 +10°C° 0 mm 3 mps 712 mmHg 79%
09:00 +11°C° 0 mm 3 mps 713 mmHg 76%
10:00 +12°C° 0 mm 4 mps 713 mmHg 73%
11:00 +13°C° 0 mm 4 mps 713 mmHg 70%
12:00 +13°C° 0.3 mm 4 mps 713 mmHg 72%
13:00 +13°C° 0.3 mm 4 mps 712 mmHg 75%
14:00 +13°C° 0.3 mm 4 mps 712 mmHg 77%
15:00 +12°C° 0.3 mm 4 mps 712 mmHg 80%
16:00 +12°C° 0.3 mm 3 mps 712 mmHg 83%
17:00 +11°C° 0.3 mm 3 mps 712 mmHg 85%
18:00 +10°C° 0.1 mm 2 mps 712 mmHg 88%
19:00 +10°C° 0.1 mm 2 mps 712 mmHg 90%
20:00 +10°C° 0.1 mm 1 mps 712 mmHg 92%
21:00 +9°C° 0.1 mm 1 mps 712 mmHg 92%
22:00 +9°C° 0.1 mm 1 mps 712 mmHg 92%
23:00 +9°C° 0.1 mm 1 mps 713 mmHg 92%

Day after tomorrow, 2 March, Tuesday

Time Temperature Precipitation Wind Pressure Humidity
00:00 +9°C° 0 mm 1 mps 712 mmHg 92%
01:00 +8°C° 0 mm 1 mps 712 mmHg 92%
02:00 +8°C° 0 mm 1 mps 712 mmHg 92%
03:00 +8°C° 0 mm 2 mps 712 mmHg 92%
04:00 +8°C° 0 mm 2 mps 712 mmHg 92%
05:00 +8°C° 0 mm 2 mps 712 mmHg 92%
06:00 +9°C° 0 mm 2 mps 713 mmHg 90%
07:00 +10°C° 0 mm 3 mps 713 mmHg 87%
08:00 +10°C° 0 mm 3 mps 713 mmHg 85%
09:00 +11°C° 0 mm 4 mps 713 mmHg 82%
10:00 +12°C° 0 mm 4 mps 713 mmHg 78%
11:00 +12°C° 0 mm 5 mps 713 mmHg 74%
12:00 +13°C° 0.2 mm 5 mps 713 mmHg 75%
13:00 +13°C° 0.2 mm 5 mps 713 mmHg 75%
14:00 +13°C° 0.2 mm 6 mps 712 mmHg 76%
15:00 +12°C° 0.1 mm 5 mps 712 mmHg 77%
16:00 +10°C° 0.1 mm 5 mps 712 mmHg 78%
17:00 +11°C° 0.1 mm 4 mps 712 mmHg 78%
18:00 +10°C° 0 mm 3 mps 712 mmHg 81%
19:00 +9°C° 0 mm 3 mps 712 mmHg 85%
20:00 +8°C° 0 mm 2 mps 712 mmHg 88%
21:00 +8°C° 0.1 mm 2 mps 712 mmHg 89%
22:00 +8°C° 0.1 mm 2 mps 712 mmHg 91%
23:00 +8°C° 0.1 mm 2 mps 712 mmHg 92%

3 March, Wednesday

Time Temperature Precipitation Wind Pressure Humidity
00:00 +8°C° 0.2 mm 2 mps 712 mmHg 92%
01:00 +9°C° 0.2 mm 2 mps 712 mmHg 93%
02:00 +9°C° 0.2 mm 2 mps 712 mmHg 93%
03:00 +8°C° 0.2 mm 2 mps 712 mmHg 93%
04:00 +8°C° 0.2 mm 2 mps 712 mmHg 94%
05:00 +8°C° 0.2 mm 2 mps 712 mmHg 94%
06:00 +8°C° 0 mm 2 mps 712 mmHg 91%
07:00 +9°C° 0 mm 3 mps 712 mmHg 88%
08:00 +9°C° 0 mm 3 mps 713 mmHg 86%
09:00 +10°C° 0.3 mm 3 mps 713 mmHg 82%
10:00 +11°C° 0.3 mm 3 mps 713 mmHg 79%
11:00 +11°C° 0.3 mm 3 mps 713 mmHg 76%
12:00 +11°C° 0.5 mm 3 mps 712 mmHg 75%
13:00 +11°C° 0.5 mm 3 mps 712 mmHg 75%
14:00 +11°C° 0.5 mm 3 mps 711 mmHg 74%
15:00 +11°C° 0.6 mm 3 mps 711 mmHg 77%
16:00 +10°C° 0.6 mm 2 mps 711 mmHg 80%
17:00 +10°C° 0.6 mm 2 mps 711 mmHg 83%
18:00 +10°C° 0.4 mm 1 mps 711 mmHg 84%
19:00 +9°C° 0.4 mm 1 mps 711 mmHg 85%
20:00 +8°C° 0.4 mm 1 mps 711 mmHg 87%
21:00 +8°C° 0.2 mm 1 mps 711 mmHg 86%
22:00 +8°C° 0.2 mm 1 mps 711 mmHg 86%
23:00 +7°C° 0.2 mm 1 mps 711 mmHg 86%

4 March, Thursday

Time Temperature Precipitation Wind Pressure Humidity
00:00 +7°C° 0.2 mm 1 mps 711 mmHg 86%
01:00 +7°C° 0.2 mm 1 mps 711 mmHg 87%
02:00 +7°C° 0.2 mm 1 mps 711 mmHg 87%
03:00 +7°C° 0.1 mm 1 mps 711 mmHg 87%
04:00 +7°C° 0.1 mm 1 mps 711 mmHg 87%
05:00 +7°C° 0.1 mm 1 mps 711 mmHg 87%
06:00 +8°C° 0 mm 1 mps 711 mmHg 86%
07:00 +8°C° 0 mm 1 mps 711 mmHg 85%
08:00 +9°C° 0 mm 1 mps 712 mmHg 83%
09:00 +9°C° 0 mm 2 mps 712 mmHg 80%
10:00 +10°C° 0 mm 3 mps 713 mmHg 77%
11:00 +11°C° 0 mm 4 mps 713 mmHg 74%
12:00 +11°C° 0 mm 4 mps 713 mmHg 74%
13:00 +12°C° 0 mm 4 mps 712 mmHg 74%
14:00 +12°C° 0 mm 4 mps 712 mmHg 73%
15:00 +12°C° 0 mm 4 mps 713 mmHg 75%
16:00 +11°C° 0 mm 3 mps 713 mmHg 77%
17:00 +11°C° 0 mm 3 mps 713 mmHg 79%
18:00 +10°C° 0 mm 2 mps 713 mmHg 83%
19:00 +9°C° 0 mm 2 mps 714 mmHg 87%
20:00 +8°C° 0 mm 2 mps 714 mmHg 91%
21:00 +8°C° 0 mm 2 mps 714 mmHg 90%
22:00 +9°C° 0 mm 1 mps 714 mmHg 90%
23:00 +8°C° 0 mm 1 mps 714 mmHg 90%

5 March, Friday

Time Temperature Precipitation Wind Pressure Humidity
00:00 +8°C° 0 mm 1 mps 714 mmHg 90%
01:00 +8°C° 0 mm 1 mps 714 mmHg 90%
02:00 +8°C° 0 mm 1 mps 714 mmHg 90%
03:00 +7°C° 0 mm 1 mps 714 mmHg 89%
04:00 +7°C° 0 mm 1 mps 714 mmHg 88%
05:00 +7°C° 0 mm 1 mps 714 mmHg 87%
06:00 +8°C° 0 mm 1 mps 715 mmHg 82%
07:00 +10°C° 0 mm 1 mps 716 mmHg 77%
08:00 +12°C° 0 mm 1 mps 716 mmHg 73%
09:00 +13°C° 0 mm 2 mps 716 mmHg 68%
10:00 +13°C° 0 mm 3 mps 717 mmHg 63%
11:00 +14°C° 0 mm 3 mps 717 mmHg 58%
12:00 +14°C° 0 mm 4 mps 717 mmHg 58%
13:00 +14°C° 0 mm 4 mps 716 mmHg 58%
14:00 +15°C° 0 mm 4 mps 716 mmHg 58%
15:00 +14°C° 0 mm 3 mps 716 mmHg 62%
16:00 +13°C° 0 mm 3 mps 716 mmHg 67%
17:00 +13°C° 0 mm 2 mps 716 mmHg 71%
18:00 +12°C° 0 mm 2 mps 716 mmHg 75%
19:00 +10°C° 0 mm 1 mps 716 mmHg 78%
20:00 +8°C° 0 mm 0 mps 716 mmHg 81%
21:00 +9°C° 0 mm 1 mps 716 mmHg 79%
22:00 +9°C° 0 mm 1 mps 716 mmHg 76%
23:00 +8°C° 0 mm 1 mps 716 mmHg 74%
Show more